Location: Hohe Wand Waldeggerhaus
(47.8500°N, 16.0440°E)
Time: 09:22:09
(UTC+02:00)

Envisat - Pass Details

Date: 30 May 2024
Orbit: 762 x 764 km, 98.3° (Epoch: 13 June)

Event Time Altitude Azimuth Distance (km) Brightness Sun altitude
Rises 04:06:51 0° 16° (NNE) 3,239 7.5 -7.9°
Reaches altitude 10° 04:09:11 10° 19° (NNE) 2,308 6.7 -7.7°
Maximum altitude 04:14:15 65° 102° (ESE) 840 3.4 -7.1°
Drops below altitude 10° 04:19:16 10° 184° (S) 2,291 5.0 -6.5°
Sets 04:21:34 0° 187° (S) 3,212 5.8 -6.2°
